STARLINK-2383, 47802

Orbit data source: Space-Track

STARLINK-2383, 47802 is a payload satellite owned by SpaceX/Seattle (US) in LEO that was launched on Thu, 11 Mar 2021 UTC via an FALCON 9 launch vehicle from the Air Force Eastern Test Range (AFETR). Payload-class satellites include a variety of spacecraft equipped with specific instruments for various scientific and technological missions. These include communications satellites like Starlink; space stations such as the ISS; scientific satellites like the Hubble; Earth observation satellites from companies like Planet Labs, Umbra, and HawkEye 360; GPS; miniature CubeSats for education and research; and military/defense satellites.

Loading next visibility...
Identifier
47802, 2021-018R
Orbit
LEO
Country
Flag of USUS
Related business
Manufacturer
SpaceX/Seattle
Mission
Operational Commercial Communications
Bus & Motor
STARLINK, Unknown motor
Mass
260 kg wet, ~248 kg dry
Launch date (UTC)
2021-03-11 (6 years ago)
Launch vehicle
FALCON 9
Launch site
Air Force Eastern Test Range (AFETR)
Object type
Payload
Rocket body
Debris
Shape & HBR
Box + 1 Pan, 10.1 m
Radar Cross Section
13.562 m², Large (>1 m²)

Expand to show TLE details & history
Last TLE update: 18 hours ago

TLE from 18 hours ago
0 STARLINK-2383
1 47802U 21018R   26262.83917240 -.00001246  00000-0 -28388-4 0  9993
2 47802  53.1587  72.3173 0000628  68.1818 291.9250 15.31707247306298
Epoch: 2026-09-19T20:08Z
TLE epoch observation values (Epoch: 2026-09-19T20:08:24.495Z)
Latitude
-0.00003°
Longitude
131.47327°
Altitude
471.458 km
Speed
7.632 km/s
True Right ascension
04h 49m 16s
True Declination
0° 00' 00"
Sunlit
Object was in daylight at epoch
Visualization orbit readout
Latitude
Unknown
Longitude
Unknown
Altitude
Unknown
Speed
Unknown
Apparent Right ascension
Unknown
Apparent Declination
Unknown
Sunlit
N/A
Visualization observer readout
Local Sidereal Time
06:57:44
Azimuth
Unknown
Elevation
Unknown
Doppler factor
Unknown
Orbital elements
Apogee altitude
471.405 km
Perigee altitude
470.545 km
Semi-major axis
6,849.112 km
Eccentricity
0.00006
Inclination
53.1587°
RAAN
72.3173°
Arg. of periapsis
68.1818°
True anomaly
291.91832°
Mean anomaly
291.925°
Eccentric anomaly
291.92166°
Mean motion
3.82906 °/min
Orbital period
94.02 mins
BSTAR
-0.000028388
Loading maneuver chart data...
Computing Atmospheric mass density...
Loading historical data...
Loading historical data...
Loading historical data...
Loading historical data...
Loading historical data...
Loading historical data...
Loading historical data...

Documentation

Showing up to 5 results
|